FW7233 Weather Reports


Display with metric or nautical units.
time (UTC)temp
F
wind
direction
speed
MPH
gust
MPH
rain 1hr
in
rain 24hr
in
rain mn
in
humidity
%
barometer
mb
20260503192531 57 139 0.0 3.0 0.00 0.00 0.00 66 1014.7
20260503190531 61 136 0.0 2.0 0.00 0.00 0.00 57 1014.8
20260503184531 60 136 0.0 2.0 0.00 0.00 0.00 59 1014.6
20260503181530 68 128 2.0 3.0 0.00 0.00 0.00 44 1014.3
20260503180531 70 129 1.0 3.0 0.00 0.00 0.00 40 1014.3
20260503175531 71 139 0.0 4.0 0.00 0.00 0.00 39 1013.8
20260503174531 71 154 1.0 3.0 0.00 0.00 0.00 38 1014.0
20260503173531 72 143 1.0 4.0 0.00 0.00 0.00 38 1014.1
20260503172533 72 141 0.0 4.0 0.00 0.00 0.00 37 1014.0
20260503171530 74 175 2.0 3.0 0.00 0.00 0.00 38 1013.9
20260503150531 79 168 2.0 9.0 0.00 0.00 0.00 29 1014.5
20260503110531 77 172 4.0 13.0 0.00 0.00 0.00 35 1017.0
20260503080530 69 136 4.0 13.0 0.00 0.00 0.00 48 1018.2
20260503072532 67 183 2.0 7.0 0.00 0.00 0.00 54 1018.4
20260503071530 66 160 5.0 8.0 0.00 0.00 0.00 50 1018.4
20260503070531 66 143 5.0 7.0 0.00 0.00 0.00 49 1018.2
20260503054531 60 162 2.0 6.0 0.00 0.00 0.00 61 1018.2
20260503053532 58 149 3.0 8.0 0.00 0.00 0.00 63 1018.1
20260503051532 56 146 2.0 6.0 0.00 0.00 0.00 66 1018.6
20260503050543 55 137 2.0 6.0 0.00 0.00 0.00 69 1018.5
20260503044531 53 160 2.0 4.0 0.00 0.00 0.00 71 1018.6
20260503042532 49 131 1.0 3.0 0.00 0.00 0.00 81 1018.7
20260503041533 44 130 0.0 2.0 0.00 0.00 0.00 94 1018.8
20260503040533 42 124 0.0 1.0 0.00 0.00 0.00 99 1018.7
20260503033533 39 137 0.0 1.0 0.00 0.00 0.00 99 1018.8
20260503032533 38 136 0.0 1.0 0.00 0.00 0.00 99 1019.1
20260503031532 38 138 0.0 1.0 0.00 0.00 0.00 98 1018.8
20260503030532 39 135 0.0 1.0 0.00 0.00 0.00 98 1019.1
20260503024531 39 138 0.0 1.0 0.00 0.00 0.00 98 1018.8
20260503023531 39 130 0.0 0.0 0.00 0.00 0.00 98 1018.9
20260503022530 39 131 0.0 0.0 0.00 0.00 0.00 98 1019.0
20260503021531 39 131 0.0 0.0 0.00 0.00 0.00 97 1019.0
20260503020531 39 131 0.0 0.0 0.00 0.00 0.00 97 1019.1
20260503015530 40 130 0.0 0.0 0.00 0.00 0.00 97 1019.2
20260503014531 40 138 0.0 0.0 0.00 0.00 0.00 97 1019.3
20260503013531 40 138 0.0 0.0 0.00 0.00 0.00 96 1019.2
20260503012532 40 138 0.0 0.0 0.00 0.00 0.00 95 1019.0
20260503011533 40 138 0.0 0.0 0.00 0.00 0.00 95 1019.2
20260503010533 41 138 0.0 0.0 0.00 0.00 0.00 94 1019.3
20260503005531 42 131 0.0 0.0 0.00 0.00 0.00 94 1019.4
20260503003533 42 125 0.0 0.0 0.00 0.00 0.00 93 1019.2
20260503001534 43 135 0.0 0.0 0.00 0.00 0.00 91 1019.0
20260503000533 44 135 0.0 0.0 0.00 0.00 0.00 90 1019.3
20260502234533 44 135 0.0 1.0 0.00 0.00 0.00 89 1019.1
20260502233530 44 129 0.0 0.0 0.00 0.00 0.00 89 1019.4
20260502231519 45 136 0.0 1.0 0.00 0.00 0.00 87 1019.4
20260502230534 46 124 1.0 2.0 0.00 0.00 0.00 87 1019.4
20260502223509 47 152 1.0 2.0 0.00 0.00 0.00 85 1019.5
20260502222509 47 131 0.0 2.0 0.00 0.00 0.00 86 1019.5
20260502221508 47 131 1.0 2.0 0.00 0.00 0.00 84 1019.7
20260502220508 47 134 1.0 2.0 0.00 0.00 0.00 84 1019.6
20260502215510 47 135 1.0 2.0 0.00 0.00 0.00 84 1019.9
20260502214507 46 142 0.0 1.0 0.00 0.00 0.00 86 1019.9
20260502211509 47 134 0.0 1.0 0.00 0.00 0.00 85 1020.0
20260502204509 49 138 0.0 1.0 0.00 0.00 0.00 84 1020.0
20260502203510 49 137 0.0 1.0 0.00 0.00 0.00 82 1019.8
20260502202507 50 140 0.0 1.0 0.00 0.00 0.00 80 1020.2
20260502200510 51 144 1.0 1.0 0.00 0.00 0.00 79 1020.2
20260502195509 51 144 0.0 2.0 0.00 0.00 0.00 79 1020.2
20260502194507 52 140 1.0 2.0 0.00 0.00 0.00 75 1020.2